DELTA 1 DEB, 7056

Orbit data source: Space-Track

DELTA 1 DEB, 7056 is space debris in SSO originally from a launch on Tue, 06 Nov 1973 UTC launched from the Air Force Western Test Range (AFWTR). Debris objects in space refer to the collection of defunct objects orbiting the Earth. Examples of debris include non-operational satellites, rocket bodies, and fragments generated from explosions, collisions, or faulty payload assembly.

Loading next visibility...
Identifier
7056, 1973-086AY
Orbit
SSO
Country
Flag of USUS
Related business
Manufacturer
Unknown
Mission
Spacecraft
Bus & Motor
Unknown
Mass
Unknown
Launch date (UTC)
1973-11-06 (52 years ago)
Launch vehicle
Unknown
Launch site
Air Force Western Test Range (AFWTR)
Object type
Payload
Rocket body
Debris
Shape & HBR
Unknown shape, 0.2 m
Radar Cross Section
Small (<0.1 m²)

Expand to show TLE details & history
Last TLE update: 13 hours ago

TLE from 13 hours ago
0 DELTA 1 DEB
1 07056U 73086AY  25292.24428297  .00000016  00000-0  56569-3 0  9991
2 07056 102.7266 290.2601 0087041 238.2679 135.1045 12.24167322320645
Epoch: 2025-10-19T05:51Z
TLE epoch observation values (Epoch: 2025-10-19T05:51:46.048Z)
Latitude
13.69155°
Longitude
171.21568°
Altitude
1,625.555 km
Speed
7.037 km/s
True Right ascension
19h 08m 29s
True Declination
13° 37' 16"
Sunlit
Object was in daylight at epoch
Visualization orbit readout
Latitude
Unknown
Longitude
Unknown
Altitude
Unknown
Speed
Unknown
Apparent Right ascension
Unknown
Apparent Declination
Unknown
Sunlit
N/A
Visualization observer readout
Local Sidereal Time
13:42:47
Azimuth
Unknown
Elevation
Unknown
Doppler factor
Unknown
Orbital elements
Apogee altitude
1,641.281 km
Perigee altitude
1,502.882 km
Semi-major axis
7,950.218 km
Eccentricity
0.0087
Inclination
102.7266°
RAAN
290.2601°
Arg. of periapsis
238.2679°
True anomaly
135.80309°
Mean anomaly
135.1045°
Eccentric anomaly
135.45433°
Mean motion
3.06178 °/min
Orbital period
117.58 mins
BSTAR
0.00056569
Loading maneuver chart data...
Computing Atmospheric mass density...
Loading historical data...
Loading historical data...
Loading historical data...
Loading historical data...
Loading historical data...
Loading historical data...
Loading historical data...

Documentation

Showing up to 5 results
|